5. kolo Cenera 2018 rezultati - 01. 09. 2018 10:00 Embed

dužina:9,75 km

Prva subota u mjesecu, 1.9. održano je 5. kolo Cenera prema novom rasporedu. Do kraja 2018. održati će se još 3 Cenera svake prve subote u 10.00.
Najbrži je bio Matija Lojen, junior BK Zagreba s rezultatom 0:27.22.
Nastupilo je 22 bicikl - ista /-ica.


# Prezime i ime Klub Vrijeme Kasni Avg Bodovi
1. Lojen Matija BK Zagreb 00:27:22 00'' 21,4 km/h 73,08
2. Kleković Antonio BK Stubaki 00:27:23 00:00:01 21,4 km/h 73,04
3. Jukić Marino Aviokarte.hr 00:28:33 00:01:11 20,5 km/h 70,05
4. Popović Eugen Gbt Tuškanac 00:29:48 00:02:26 19,6 km/h 67,11
5. Rajković Marko BK Ciklus 00:29:53 00:02:31 19,6 km/h 66,93
6. Ivančan Vilim Individualac 00:30:07 00:02:45 19,4 km/h 66,41
7. Milković Marina Individualac 00:31:10 00:03:48 18,8 km/h 64,17
8. Šporer Matej Individualac 00:31:12 00:03:50 18,8 km/h 64,10
9. Zupi Dami MT Krško 00:31:30 00:04:08 18,6 km/h 63,49
10. Kukec Nikola Individualac 00:32:45 00:05:23 17,9 km/h 61,07
11. Kovačić Mario Individualac 00:33:10 00:05:48 17,6 km/h 60,30
12. Tomičić Branko BK Ciklus 00:33:38 00:06:16 17,4 km/h 59,46
13. Malbaša Dino Individualac 00:33:43 00:06:21 17,4 km/h 59,32
14. Radas Ante Individualac 00:35:02 00:07:40 16,7 km/h 57,09
15. Pavlić Ivan BK Ciklus 00:35:09 00:07:47 16,6 km/h 56,90
16. Bonačić Maja BK Ciklus 00:35:24 00:08:02 16,5 km/h 56,50
17. Kolenko Tomica BTWIN 00:39:27 00:12:05 14,8 km/h 50,70
18. Doležal Jan BTWIN 00:39:54 00:12:32 14,7 km/h 50,13
19. Pekez Tomislav BK Ciklus 00:40:05 00:12:43 14,6 km/h 49,90
20. Kovač Ivica BTWIN 00:40:19 00:12:57 14,5 km/h 49,61
21. Herceg Tomislav   00:43:57 00:16:35 13,3 km/h 45,51
22. Žalac Tomislav BTWIN 00:56:50 00:29:28 10,3 km/h 35,19